Location: Asbacherhof
(48.8543°N, 10.7903°E)
Time: 22:53:43
(UTC+00:00)

Helios 1B rocket - Pass Details

Date: 26 May 2022
Orbit: 569 x 578 km, 98.2° (Epoch: 29 June)

Event Time Altitude Azimuth Distance (km) Brightness Sun altitude
Rises 02:37:59 0° 14° (NNE) 2,787 7.0 -6.6°
Reaches altitude 10° 02:40:09 10° 14° (NNE) 1,884 6.0 -6.3°
Maximum altitude 02:44:14 89° 287° (WNW) 577 2.4 -5.8°
Drops below altitude 10° 02:48:17 10° 196° (SSW) 1,868 4.5 -5.3°
Enters shadow 02:50:01 - 196° (SSW) 2,595 5.2 -5.1°
